Regional Weather Roundup
Issued by NWS

Home | Current Version | Previous Version | Graphics & Text | Print | Product List | Glossary On
Versions: 1 2 3 4 5 6 7 8 9 10 11 12 13 14 15 16 17 18 19 20 21 22 23 24 25 26 27 28 29 30 31 32 33 34 35 36 37 38 39 40 41 42 43 44 45 46 47 48 49 50
882
ASUS43 KLSX 192207
RWRMO

WEATHER SUMMARY FOR MISSOURI
NATIONAL WEATHER SERVICE SPRINGFIELD MO
500 PM CDT SAT AUG 19 2017

NOTE: "FAIR" INDICATES FEW OR NO CLOUDS BELOW 12,000 FEET WITH NO
       SIGNIFICANT WEATHER AND/OR OBSTRUCTIONS TO VISIBILITY.
       CURRENT SKY AND/OR WEATHER CONDITIONS ARE NOT AVAILABLE FOR
       CHILLICOTHE AND FARMINGTON.

MOZ001>031-035>038-043-044-053-054-192300-
...NORTHERN AND WESTERN MISSOURI...

CITY           SKY/WX    TMP DP  RH WIND       PRES   REMARKS
KANSAS CTY INT MOSUNNY   89  66  46 S3        29.93F HX  91
KANSAS C DTWN  SUNNY     94  67  41 E6        29.90F HX  97
LEE`S SUMMIT   SUNNY     90  71  53 E8        29.93F HX  96
ST JOSEPH      SUNNY     89  69  51 S8        29.91F HX  93
CHILLICOTHE      N/A     91  58  32 VRB5      29.92F HX  90
KIRKSVILLE     SUNNY     91  52  26 W6        29.93S

$$
MOZ066>068-077>081-088>096-101>105-192300-
...SOUTHWEST MISSOURI...

CITY           SKY/WX    TMP DP  RH WIND       PRES   REMARKS
SPRINGFIELD    CLOUDY    91  73  55 W5        29.95F HX  99
JOPLIN         SUNNY     94  74  52 SW6       29.93F HX 104
BRANSON        PTSUNNY   91  75  59 N5        29.97F HX 102

$$
MOZ032>034-039>042-045>050-055>058-069>072-192300-
...CENTRAL MISSOURI...

CITY           SKY/WX    TMP DP  RH WIND       PRES   REMARKS
COLUMBIA       SUNNY     89  67  47 W9        29.94F HX  92
JEFFERSON CITY SUNNY     90  73  57 CALM      29.91F HX  98
ROLLA          SUNNY     89  66  46 W6        29.97S HX  91
SEDALIA        SUNNY     90  73  57 S3        29.95F HX  98
WHITEMAN AFB   SUNNY     90  66  46 CALM      29.92F HX  92
OSAGE BEACH    SUNNY     89  71  55 W7        29.95F HX  95

$$
MOZ051-052-059>065-192300-
...EAST CENTRAL MISSOURI...

CITY           SKY/WX    TMP DP  RH WIND       PRES   REMARKS
ST LOUIS INTL  MOSUNNY   91  67  44 NW6       29.92F HX  94
SPIRIT OF STL  MOSUNNY   91  68  46 W5        29.91S HX  95
ST CHARLES     SUNNY     90  66  45 NW7       29.90F HX  92

$$
MOZ072>076-082>087-097>100-106>115-192300-
...SOUTH CENTRAL AND SOUTHEAST MISSOURI...

CITY           SKY/WX    TMP DP  RH WIND       PRES   REMARKS
CAPE GIRARDEAU SUNNY     90  70  51 W5        29.91F HX  95
FARMINGTON     MOSUNNY   90  67  46 W6        29.95F HX  93
POPLAR BLUFF   SUNNY     91  72  53 VRB3      29.91F HX  98
WEST PLAINS    CLOUDY    94  60  32 VRB6      29.98S HX  94

$$



USA.gov is the U.S. government's official web portal to all federal, state and local government web resources and services.